Location: Zagreb
(45.8000°N, 16.0000°E)
Time: 07:35:28
(UTC+02:00)

Courier 1B Rocket - Pass Details

Date: 17 August 2022
Orbit: 920 x 1202 km, 28.2° (Epoch: 25 September)

Event Time Altitude Azimuth Distance (km) Brightness Sun altitude
Rises 16:05:14 0° 230° (SW) 3,576 8.8 39.3°
Reaches altitude 10° 16:09:07 10° 207° (SSW) 2,609 8.0 38.7°
Maximum altitude 16:12:22 15° 175° (S) 2,284 7.3 38.2°
Drops below altitude 10° 16:15:36 10° 143° (SE) 2,605 7.2 37.7°
Sets 16:19:28 0° 121° (ESE) 3,565 7.7 37.0°
